Location: Bessat
(45.8735°N, 1.9924°E)
Time: 18:56:47
(UTC+00:00)

Spot 2 Rocket - Pass Details

Date: 11 May 2021
Orbit: 758 x 771 km, 98.5° (Epoch: 21 June)

Event Time Altitude Azimuth Distance (km) Brightness Sun altitude
Exits shadow 20:22:05 14° 128° (SE) 1,995 5.0 -10.8°
Maximum altitude 20:25:52 37° 67° (ENE) 1,171 4.3 -11.3°
Drops below altitude 10° 20:30:29 10° 1° (N) 2,299 6.6 -11.9°
Sets 20:32:55 0° 354° (N) 3,228 7.6 -12.3°
